When you browse on this site, cookies collect data to enhance your experience and personalize the content and advertising you see.
Visit our Privacy Policy to learn more. By continuing to use the site, you agree to this use of cookies and data.
  • In Hungary
  • List of Countries
  • For 7 days
  • Water Temperature
  • Satellite Maps
  • Weather Map
  • News
  • Weather Widgets
  • user-avatar
    Login

    Hourly Weather Lawrence

    Today, 20 February, Wednesday

    Time Temperature Precipitation Wind Pressure Humidity
    00:00 -9°C° 0 mm 2 mps 772 mmHg 66%
    01:00 -9°C° 0 mm 2 mps 772 mmHg 66%
    02:00 -9°C° 0 mm 2 mps 772 mmHg 66%
    03:00 -9°C° 0 mm 2 mps 772 mmHg 65%
    04:00 -9°C° 0 mm 2 mps 772 mmHg 64%
    05:00 -9°C° 0 mm 2 mps 773 mmHg 65%
    06:00 -8°C° 0 mm 1 mps 773 mmHg 65%
    07:00 -9°C° 0 mm 2 mps 773 mmHg 66%
    08:00 -8°C° 0 mm 2 mps 773 mmHg 61%
    09:00 -7°C° 0 mm 2 mps 772 mmHg 57%
    10:00 -3°C° 0 mm 1 mps 772 mmHg 52%
    11:00 -2°C° 0 mm 1 mps 772 mmHg 50%
    12:00 -2°C° 0 mm 1 mps 771 mmHg 47%
    13:00 -1°C° 0 mm 1 mps 771 mmHg 45%
    14:00 -3°C° 0 mm 2 mps 770 mmHg 46%
    15:00 -2°C° 0 mm 2 mps 770 mmHg 48%
    16:00 -2°C° 0 mm 2 mps 769 mmHg 49%
    17:00 -3°C° 0 mm 2 mps 769 mmHg 52%
    18:00 -3°C° 0 mm 2 mps 768 mmHg 54%
    19:00 -3°C° 0 mm 2 mps 768 mmHg 57%
    20:00 -4°C° 0.2 mm 2 mps 767 mmHg 64%
    21:00 -4°C° 0.2 mm 2 mps 766 mmHg 71%
    22:00 -4°C° 0.2 mm 2 mps 766 mmHg 78%
    23:00 -4°C° 1.3 mm 2 mps 765 mmHg 84%

    Tomorrow, 21 February, Thursday

    Time Temperature Precipitation Wind Pressure Humidity
    00:00 -4°C° 1.3 mm 2 mps 764 mmHg 90%
    01:00 -4°C° 1.3 mm 2 mps 763 mmHg 96%
    02:00 -3°C° 1 mm 2 mps 761 mmHg 96%
    03:00 -3°C° 1 mm 2 mps 760 mmHg 96%
    04:00 -2°C° 1 mm 2 mps 758 mmHg 95%
    05:00 -2°C° 0.6 mm 2 mps 757 mmHg 96%
    06:00 -1°C° 0.6 mm 2 mps 756 mmHg 97%
    07:00 +1°C° 0.6 mm 1 mps 755 mmHg 98%
    08:00 +2°C° 0 mm 1 mps 754 mmHg 98%
    09:00 +3°C° 0 mm 1 mps 753 mmHg 98%
    10:00 +3°C° 0 mm 1 mps 753 mmHg 98%
    11:00 +4°C° 0 mm 2 mps 753 mmHg 92%
    12:00 +5°C° 0 mm 3 mps 752 mmHg 86%
    13:00 +7°C° 0 mm 5 mps 752 mmHg 80%
    14:00 +6°C° 0 mm 4 mps 753 mmHg 78%
    15:00 +5°C° 0 mm 4 mps 753 mmHg 75%
    16:00 +4°C° 0 mm 4 mps 753 mmHg 72%
    17:00 +1°C° 0 mm 4 mps 754 mmHg 74%
    18:00 0°C° 0 mm 4 mps 755 mmHg 76%
    19:00 -1°C° 0 mm 4 mps 756 mmHg 78%
    20:00 -2°C° 0 mm 4 mps 756 mmHg 78%
    21:00 -2°C° 0 mm 4 mps 757 mmHg 77%
    22:00 -2°C° 0 mm 4 mps 757 mmHg 77%
    23:00 -2°C° 0 mm 4 mps 758 mmHg 76%

    Day after tomorrow, 22 February, Friday

    Time Temperature Precipitation Wind Pressure Humidity
    00:00 -2°C° 0 mm 4 mps 758 mmHg 76%
    01:00 -2°C° 0 mm 4 mps 758 mmHg 75%
    02:00 -2°C° 0 mm 4 mps 759 mmHg 76%
    03:00 -3°C° 0 mm 4 mps 760 mmHg 76%
    04:00 -3°C° 0 mm 4 mps 760 mmHg 76%
    05:00 -2°C° 0 mm 3 mps 761 mmHg 77%
    06:00 -2°C° 0 mm 3 mps 762 mmHg 79%
    07:00 -4°C° 0 mm 3 mps 762 mmHg 80%
    08:00 -1°C° 0 mm 3 mps 763 mmHg 74%
    09:00 -1°C° 0 mm 4 mps 764 mmHg 69%
    10:00 0°C° 0 mm 5 mps 764 mmHg 63%
    11:00 +1°C° 0 mm 5 mps 765 mmHg 62%
    12:00 +1°C° 0 mm 5 mps 765 mmHg 60%
    13:00 +3°C° 0 mm 4 mps 765 mmHg 59%
    14:00 +3°C° 0 mm 4 mps 765 mmHg 61%
    15:00 +1°C° 0 mm 4 mps 766 mmHg 63%
    16:00 +2°C° 0 mm 3 mps 766 mmHg 65%
    17:00 +1°C° 0 mm 3 mps 766 mmHg 71%
    18:00 -1°C° 0 mm 2 mps 767 mmHg 76%
    19:00 -2°C° 0 mm 2 mps 768 mmHg 81%
    20:00 -2°C° 0 mm 2 mps 768 mmHg 81%
    21:00 -2°C° 0 mm 2 mps 769 mmHg 80%
    22:00 -2°C° 0 mm 2 mps 769 mmHg 80%
    23:00 -3°C° 0 mm 2 mps 769 mmHg 79%

    23 February, Saturday

    Time Temperature Precipitation Wind Pressure Humidity
    00:00 -3°C° 0 mm 2 mps 769 mmHg 77%
    01:00 -4°C° 0 mm 3 mps 770 mmHg 76%
    02:00 -3°C° 0 mm 2 mps 770 mmHg 76%
    03:00 -4°C° 0 mm 2 mps 770 mmHg 76%
    04:00 -2°C° 0 mm 1 mps 770 mmHg 77%
    05:00 -2°C° 0 mm 1 mps 770 mmHg 77%
    06:00 -2°C° 0 mm 1 mps 770 mmHg 77%
    07:00 -2°C° 0 mm 1 mps 770 mmHg 77%
    08:00 0°C° 0 mm 1 mps 770 mmHg 71%
    09:00 0°C° 0 mm 0 mps 770 mmHg 65%
    10:00 +2°C° 0 mm 0 mps 770 mmHg 59%
    11:00 +4°C° 0 mm 1 mps 769 mmHg 58%
    12:00 +4°C° 0 mm 1 mps 768 mmHg 56%
    13:00 +4°C° 0 mm 2 mps 768 mmHg 55%
    14:00 +5°C° 0 mm 1 mps 767 mmHg 59%
    15:00 +5°C° 0 mm 1 mps 767 mmHg 63%
    16:00 +5°C° 0 mm 1 mps 766 mmHg 67%
    17:00 +4°C° 0 mm 1 mps 766 mmHg 72%
    18:00 +2°C° 0 mm 2 mps 766 mmHg 78%
    19:00 +1°C° 0 mm 2 mps 766 mmHg 83%
    20:00 +1°C° 0 mm 2 mps 765 mmHg 85%
    21:00 +1°C° 0 mm 2 mps 764 mmHg 87%
    22:00 +1°C° 0 mm 2 mps 764 mmHg 89%
    23:00 +1°C° 0 mm 2 mps 763 mmHg 90%

    24 February, Sunday

    Time Temperature Precipitation Wind Pressure Humidity
    00:00 +1°C° 0 mm 2 mps 762 mmHg 91%
    01:00 +1°C° 0 mm 2 mps 761 mmHg 93%
    02:00 +1°C° 0.7 mm 2 mps 760 mmHg 94%
    03:00 +1°C° 0.7 mm 2 mps 759 mmHg 96%
    04:00 +2°C° 0.7 mm 2 mps 758 mmHg 97%
    05:00 +1°C° 1.9 mm 3 mps 756 mmHg 97%
    06:00 +2°C° 1.9 mm 3 mps 754 mmHg 98%
    07:00 +2°C° 1.9 mm 3 mps 753 mmHg 98%
    08:00 +3°C° 1.1 mm 4 mps 751 mmHg 97%
    09:00 +4°C° 1.1 mm 4 mps 750 mmHg 97%
    10:00 +5°C° 1.1 mm 5 mps 748 mmHg 96%
    11:00 +5°C° 0.9 mm 4 mps 746 mmHg 97%
    12:00 +5°C° 0.9 mm 4 mps 744 mmHg 97%
    13:00 +7°C° 0.9 mm 3 mps 742 mmHg 98%
    14:00 +7°C° 0.2 mm 3 mps 741 mmHg 97%
    15:00 +8°C° 0.2 mm 3 mps 739 mmHg 97%
    16:00 +9°C° 0.2 mm 3 mps 738 mmHg 96%
    17:00 +7°C° 0.1 mm 4 mps 738 mmHg 88%
    18:00 +7°C° 0.1 mm 5 mps 739 mmHg 79%
    19:00 +5°C° 0.1 mm 6 mps 739 mmHg 71%
    20:00 +4°C° 0 mm 6 mps 739 mmHg 71%
    21:00 +3°C° 0 mm 6 mps 739 mmHg 71%
    22:00 +3°C° 0 mm 6 mps 739 mmHg 72%
    23:00 +2°C° 0 mm 6 mps 739 mmHg 71%

    25 February, Monday

    Time Temperature Precipitation Wind Pressure Humidity
    00:00 +2°C° 0 mm 6 mps 738 mmHg 70%
    01:00 +1°C° 0 mm 6 mps 738 mmHg 69%
    02:00 0°C° 0 mm 7 mps 738 mmHg 67%
    03:00 -1°C° 0 mm 7 mps 738 mmHg 65%
    04:00 -1°C° 0 mm 7 mps 739 mmHg 62%
    05:00 -2°C° 0 mm 8 mps 739 mmHg 60%
    06:00 -2°C° 0 mm 8 mps 740 mmHg 59%
    07:00 -4°C° 0 mm 8 mps 741 mmHg 57%
    08:00 -4°C° 0 mm 9 mps 742 mmHg 54%
    09:00 -4°C° 0 mm 9 mps 743 mmHg 51%
    10:00 -4°C° 0 mm 10 mps 744 mmHg 48%
    11:00 -4°C° 0 mm 10 mps 745 mmHg 47%
    12:00 -4°C° 0 mm 10 mps 746 mmHg 45%
    13:00 -4°C° 0 mm 10 mps 747 mmHg 43%
    14:00 -4°C° 0 mm 10 mps 748 mmHg 43%
    15:00 -5°C° 0 mm 9 mps 749 mmHg 42%
    16:00 -6°C° 0 mm 9 mps 751 mmHg 41%
    17:00 -8°C° 0 mm 9 mps 752 mmHg 43%
    18:00 -9°C° 0 mm 9 mps 754 mmHg 44%
    19:00 -10°C° 0 mm 9 mps 755 mmHg 45%
    20:00 -11°C° 0 mm 9 mps 756 mmHg 41%
    21:00 -12°C° 0 mm 9 mps 758 mmHg 37%
    22:00 -14°C° 0 mm 9 mps 759 mmHg 33%
    23:00 -15°C° 0 mm 9 mps 760 mmHg 33%
    Show more